Hourly Weather Kozla

Today, 27 October, Tuesday

Time Temperature Precipitation Wind Pressure Humidity
00:00 +11°C° 0 mm 4 mps 747 mmHg 81%
01:00 +11°C° 0 mm 3 mps 747 mmHg 79%
02:00 +10°C° 0 mm 3 mps 747 mmHg 79%
03:00 +10°C° 0 mm 3 mps 747 mmHg 79%
04:00 +10°C° 0 mm 2 mps 747 mmHg 79%
05:00 +9°C° 0 mm 2 mps 748 mmHg 79%
06:00 +9°C° 0 mm 2 mps 748 mmHg 79%
07:00 +9°C° 0 mm 2 mps 748 mmHg 77%
08:00 +10°C° 0 mm 3 mps 749 mmHg 74%
09:00 +11°C° 0 mm 3 mps 749 mmHg 71%
10:00 +11°C° 0 mm 3 mps 749 mmHg 68%
11:00 +12°C° 0 mm 3 mps 749 mmHg 64%
12:00 +13°C° 0 mm 4 mps 749 mmHg 61%
13:00 +13°C° 0 mm 4 mps 749 mmHg 58%
14:00 +13°C° 0 mm 3 mps 749 mmHg 60%
15:00 +12°C° 0 mm 3 mps 749 mmHg 63%
16:00 +13°C° 0 mm 2 mps 749 mmHg 65%
17:00 +12°C° 0 mm 2 mps 750 mmHg 69%
18:00 +10°C° 0 mm 3 mps 750 mmHg 73%
19:00 +9°C° 0 mm 3 mps 751 mmHg 76%
20:00 +9°C° 0 mm 3 mps 751 mmHg 77%
21:00 +8°C° 0 mm 3 mps 751 mmHg 78%
22:00 +8°C° 0 mm 3 mps 751 mmHg 78%
23:00 +8°C° 0 mm 3 mps 751 mmHg 79%

Tomorrow, 28 October, Wednesday

Time Temperature Precipitation Wind Pressure Humidity
00:00 +8°C° 0 mm 3 mps 751 mmHg 79%
01:00 +8°C° 0 mm 3 mps 751 mmHg 79%
02:00 +8°C° 0 mm 3 mps 751 mmHg 79%
03:00 +6°C° 0 mm 4 mps 750 mmHg 78%
04:00 +6°C° 0 mm 4 mps 750 mmHg 78%
05:00 +6°C° 0 mm 4 mps 750 mmHg 76%
06:00 +7°C° 0 mm 4 mps 750 mmHg 75%
07:00 +7°C° 0 mm 4 mps 750 mmHg 74%
08:00 +7°C° 0.1 mm 4 mps 750 mmHg 72%
09:00 +8°C° 0.1 mm 4 mps 751 mmHg 71%
10:00 +9°C° 0.1 mm 5 mps 751 mmHg 70%
11:00 +9°C° 0.1 mm 5 mps 751 mmHg 70%
12:00 +10°C° 0.1 mm 4 mps 750 mmHg 70%
13:00 +11°C° 0.1 mm 4 mps 750 mmHg 70%
14:00 +11°C° 0 mm 4 mps 750 mmHg 70%
15:00 +11°C° 0 mm 4 mps 751 mmHg 71%
16:00 +10°C° 0 mm 5 mps 751 mmHg 72%
17:00 +11°C° 0 mm 4 mps 751 mmHg 75%
18:00 +11°C° 0 mm 4 mps 751 mmHg 77%
19:00 +10°C° 0 mm 4 mps 751 mmHg 80%
20:00 +10°C° 0.1 mm 4 mps 752 mmHg 80%
21:00 +10°C° 0.1 mm 4 mps 752 mmHg 81%
22:00 +10°C° 0.1 mm 4 mps 752 mmHg 81%
23:00 +10°C° 0 mm 4 mps 752 mmHg 80%

Day after tomorrow, 29 October, Thursday

Time Temperature Precipitation Wind Pressure Humidity
00:00 +8°C° 0 mm 4 mps 752 mmHg 79%
01:00 +9°C° 0 mm 3 mps 752 mmHg 78%
02:00 +8°C° 0 mm 4 mps 752 mmHg 78%
03:00 +8°C° 0 mm 4 mps 752 mmHg 79%
04:00 +8°C° 0 mm 4 mps 752 mmHg 79%
05:00 +8°C° 0.1 mm 4 mps 752 mmHg 80%
06:00 +8°C° 0.1 mm 4 mps 752 mmHg 80%
07:00 +10°C° 0.1 mm 4 mps 752 mmHg 81%
08:00 +9°C° 0.1 mm 5 mps 752 mmHg 80%
09:00 +10°C° 0.1 mm 5 mps 752 mmHg 80%
10:00 +10°C° 0.1 mm 5 mps 752 mmHg 79%
11:00 +10°C° 0.5 mm 5 mps 752 mmHg 77%
12:00 +10°C° 0.5 mm 5 mps 752 mmHg 75%
13:00 +11°C° 0.5 mm 4 mps 752 mmHg 74%
14:00 +11°C° 0.2 mm 4 mps 752 mmHg 74%
15:00 +10°C° 0.2 mm 4 mps 753 mmHg 73%
16:00 +10°C° 0.2 mm 4 mps 753 mmHg 73%
17:00 +8°C° 0 mm 4 mps 754 mmHg 76%
18:00 +7°C° 0 mm 4 mps 755 mmHg 79%
19:00 +8°C° 0 mm 3 mps 755 mmHg 81%
20:00 +6°C° 0 mm 4 mps 756 mmHg 82%
21:00 +6°C° 0 mm 4 mps 756 mmHg 82%
22:00 +6°C° 0 mm 4 mps 757 mmHg 83%
23:00 +5°C° 0 mm 3 mps 757 mmHg 84%

30 October, Friday

Time Temperature Precipitation Wind Pressure Humidity
00:00 +5°C° 0 mm 3 mps 757 mmHg 85%
01:00 +5°C° 0 mm 3 mps 757 mmHg 87%
02:00 +5°C° 0 mm 3 mps 757 mmHg 87%
03:00 +5°C° 0 mm 3 mps 757 mmHg 88%
04:00 +5°C° 0 mm 3 mps 757 mmHg 88%
05:00 +7°C° 0.2 mm 3 mps 756 mmHg 89%
06:00 +7°C° 0.2 mm 3 mps 756 mmHg 90%
07:00 +8°C° 0.2 mm 3 mps 755 mmHg 91%
08:00 +7°C° 1 mm 4 mps 755 mmHg 92%
09:00 +8°C° 1 mm 4 mps 755 mmHg 94%
10:00 +10°C° 1 mm 4 mps 754 mmHg 95%
11:00 +9°C° 1.2 mm 5 mps 754 mmHg 94%
12:00 +10°C° 1.2 mm 5 mps 754 mmHg 93%
13:00 +11°C° 1.2 mm 6 mps 754 mmHg 92%
14:00 +11°C° 0.6 mm 6 mps 754 mmHg 92%
15:00 +11°C° 0.6 mm 6 mps 754 mmHg 91%
16:00 +11°C° 0.6 mm 6 mps 754 mmHg 91%
17:00 +11°C° 0.2 mm 6 mps 754 mmHg 91%
18:00 +11°C° 0.2 mm 6 mps 754 mmHg 91%
19:00 +11°C° 0.2 mm 6 mps 754 mmHg 92%
20:00 +12°C° 0.3 mm 5 mps 755 mmHg 92%
21:00 +12°C° 0.3 mm 5 mps 755 mmHg 92%
22:00 +12°C° 0.3 mm 5 mps 756 mmHg 92%
23:00 +12°C° 0.1 mm 5 mps 756 mmHg 93%

31 October, Saturday

Time Temperature Precipitation Wind Pressure Humidity
00:00 +12°C° 0.1 mm 4 mps 756 mmHg 93%
01:00 +12°C° 0.1 mm 4 mps 756 mmHg 94%
02:00 +12°C° 0.2 mm 4 mps 757 mmHg 95%
03:00 +12°C° 0.2 mm 3 mps 757 mmHg 95%
04:00 +12°C° 0.2 mm 3 mps 757 mmHg 96%
05:00 +12°C° 0.3 mm 3 mps 758 mmHg 97%
06:00 +13°C° 0.3 mm 2 mps 758 mmHg 97%
07:00 +13°C° 0.3 mm 2 mps 758 mmHg 97%
08:00 +13°C° 0.4 mm 2 mps 759 mmHg 97%
09:00 +13°C° 0.4 mm 1 mps 759 mmHg 97%
10:00 +13°C° 0.4 mm 1 mps 760 mmHg 97%
11:00 +13°C° 0.1 mm 1 mps 760 mmHg 97%
12:00 +13°C° 0.1 mm 1 mps 760 mmHg 96%
13:00 +13°C° 0.1 mm 1 mps 760 mmHg 96%
14:00 +13°C° 0 mm 1 mps 760 mmHg 95%
15:00 +13°C° 0 mm 1 mps 760 mmHg 95%
16:00 +13°C° 0 mm 1 mps 760 mmHg 95%
17:00 +13°C° 0 mm 2 mps 760 mmHg 95%
18:00 +12°C° 0 mm 2 mps 760 mmHg 96%
19:00 +12°C° 0 mm 2 mps 760 mmHg 96%
20:00 +12°C° 0 mm 2 mps 760 mmHg 96%
21:00 +10°C° 0 mm 2 mps 760 mmHg 96%
22:00 +10°C° 0 mm 3 mps 759 mmHg 96%
23:00 +10°C° 0 mm 3 mps 759 mmHg 95%

1 November, Sunday

Time Temperature Precipitation Wind Pressure Humidity
00:00 +10°C° 0 mm 3 mps 759 mmHg 94%
01:00 +9°C° 0 mm 3 mps 759 mmHg 93%
02:00 +9°C° 0 mm 2 mps 759 mmHg 93%
03:00 +9°C° 0 mm 2 mps 758 mmHg 94%
04:00 +9°C° 0 mm 2 mps 758 mmHg 94%
05:00 +9°C° 0 mm 2 mps 758 mmHg 94%
06:00 +8°C° 0 mm 2 mps 758 mmHg 94%
07:00 +8°C° 0 mm 2 mps 758 mmHg 94%
08:00 +10°C° 0 mm 3 mps 758 mmHg 88%
09:00 +11°C° 0 mm 3 mps 758 mmHg 82%
10:00 +13°C° 0 mm 4 mps 757 mmHg 76%
11:00 +14°C° 0 mm 4 mps 757 mmHg 73%
12:00 +14°C° 0 mm 4 mps 757 mmHg 70%
13:00 +15°C° 0 mm 4 mps 757 mmHg 67%
14:00 +14°C° 0 mm 4 mps 757 mmHg 70%
15:00 +14°C° 0 mm 4 mps 756 mmHg 74%
16:00 +13°C° 0 mm 4 mps 756 mmHg 77%
17:00 +12°C° 0 mm 4 mps 756 mmHg 78%
18:00 +12°C° 0 mm 4 mps 756 mmHg 79%
19:00 +12°C° 0 mm 4 mps 756 mmHg 79%
20:00 +12°C° 0 mm 4 mps 757 mmHg 79%
21:00 +12°C° 0 mm 4 mps 757 mmHg 78%
22:00 +12°C° 0 mm 4 mps 757 mmHg 77%
23:00 +12°C° 0 mm 4 mps 757 mmHg 78%
Show more